カタログに戻る

NIGERIASAT X

運用中科学SSO
NORAD 37790·PAYLOAD·🇳🇬 Nigeria

打ち上げ Aug 17, 2011 から Dombarovsky

Loading…

次のパス (今後24時間)

TLE

最新Source: Space-Track

元期: Sep 14, 2026, 09:08 UTC

1 37790U 11044C   26257.38061595  .00000247  00000-0  59358-4 0  9992
2 37790  97.8654 237.0586 0013496  57.2745 302.9755 14.60918343803192

AllMySatでNIGERIASAT Xをリアルタイム追跡

Download on the App Store